Temp
-3 -3 -3 -7 -6 -6 -6 -6 -6 -5 -5 -6 -6 -5 -6 -5 -5 -5 -5 -6 -6 -6 -6 -6 -5 -6 -6 -6 -6 -6 -7 -7 -6 -6 -6 -6 -7 -6 -7 -5 -6 -7 -7 -7
-3 -3 -4 -7 -7 -5 -6 -6 -6 -6 -5 -5 -6 -6 -6 -6 -6 -6 -6 -6 -6 -6 -6 -6 -6 -6 -6 -6 -6 -6 -7 -7 -7 -6 -6 -6 -6 -6 -6 -7 -6 -7 -7 -6
-4 -4 -4 -6 -6 -6 -6 -6 -6 -5 -6 -5 -5 -7 -6 -5 -7 -6 -6 -6 -6 -6 -6 -6 -6 -5 -6 -6 -6 -6 -6 -7 -7 -7 -7 -7 -6 -6 -6 -6 -6 -7 -7 -6
-4 -5 -6 -4 -6 -6 -5 -5 -6 -6 -5 -6 -6 -6 -5 -5 -6 -6 -6 -6 -6 -6 -6 -6 -6 -6 -6 -6 -6 -6 -6 -6 -6 -7 -7 -7 -7 -6 -6 -6 -6 -7 -7 -6
-5 -6 -7 -6 -6 -6 -6 -6 -6 -6 -6 -6 -5 -5 -7 -5 -4 -6 -6 -6 -6 -6 -6 -6 -6 -6 -6 -6 -6 -6 -6 -6 -7 -7 -6 -7 -7 -7 -7 -6 -6 -7 -6 -6
-5 -7 -6 -6 -5 -7 -6 -6 -6 -6 -6 -6 -5 -4 -4 -5 -5 -4 -6 -6 -6 -6 -6 -6 -6 -6 -6 -6 -6 -7 -7 -7 -7 -7 -7 -6 -6 -7 -7 -7 -7 -6 -6 -5
-5 -5 -5 -5 -4 -5 -6 -6 -6 -6 -5 -5 -4 -4 -6 -5 -4 -4 -4 -6 -6 -6 -6 -6 -6 -7 -7 -7 -7 -7 -7 -7 -7 -7 -7 -7 -6 -7 -6 -7 -7 -6 -6 -6
-7 -7 -5 -5 -5 -5 -5 -6 -6 -6 -5 -4 -4 -4 -5 -6 -6 -5 -7 -7 -6 -6 -6 -6 -6 -7 -7 -7 -7 -7 -7 -7 -7 -7 -7 -7 -6 -6 -6 -7 -7 -6 -6 -7
-7 -7 -7 -6 -5 -5 -5 -6 -6 -6 -5 -4 -4 -4 -5 -7 -7 -6 -7 -7 -7 -6 -6 -6 -6 -6 -7 -7 -7 -7 -7 -7 -7 -7 -7 -7 -7 -7 -6 -6 -6 -6 -6 -7
-7 -7 -6 -6 -6 -5 -5 -6 -6 -6 -6 -5 -4 -6 -5 -5 -6 -6 -7 -6 -7 -7 -6 -6 -6 -6 -7 -7 -8 -8 -8 -7 -8 -8 -8 -8 -8 -7 -7 -7 -7 -7 -6 -7
-8 -7 -7 -7 -7 -6 -5 -6 -6 -6 -5 -5 -4 -4 -5 -5 -6 -6 -6 -6 -7 -7 -7 -7 -6 -6 -6 -7 -8 -8 -8 -8 -8 -8 -7 -7 -6 -6 -7 -7 -7 -7 -7 -7
-8 -8 -7 -7 -7 -7 -7 -6 -6 -6 -5 -5 -4 -5 -5 -6 -6 -6 -6 -6 -6 -6 -7 -6 -6 -6 -7 -7 -8 -8 -8 -8 -8 -8 -8 -8 -9 -9 -9 -7 -7 -7 -7 -7
-8 -7 -7 -7 -6 -7 -6 -6 -6 -6 -5 -5 -5 -5 -5 -6 -6 -6 -7 -7 -6 -6 -6 -6 -7 -6 -8 -8 -8 -8 -8 -8 -8 -8 -9 -9 -9 -10 -9 -9 -8 -8 -8 -8
-8 -8 -8 -6 -6 -6 -7 -7 -7 -6 -5 -5 -5 -5 -5 -6 -6 -6 -6 -6 -7 -6 -6 -7 -7 -7 -8 -8 -8 -8 -8 -8 -8 -9 -9 -9 -9 -9 -9 -9 -9 -8 -8 -8
-7 -8 -8 -7 -7 -6 -6 -6 -7 -6 -6 -5 -5 -5 -6 -6 -6 -6 -5 -7 -7 -6 -6 -7 -7 -7 -7 -8 -8 -8 -8 -8 -8 -9 -9 -8 -8 -8 -8 -8 -9 -9 -8 -8
-7 -8 -8 -8 -7 -7 -7 -6 -6 -6 -6 -6 -6 -6 -6 -6 -6 -6 -6 -7 -7 -7 -7 -7 -7 -7 -7 -8 -8 -8 -8 -8 -9 -9 -9 -8 -7 -7 -7 -7 -7 -7 -8 -8
-8 -9 -8 -8 -7 -7 -7 -7 -6 -6 -6 -6 -6 -6 -6 -6 -6 -6 -6 -7 -7 -7 -7 -7 -7 -7 -7 -7 -8 -8 -9 -9 -9 -9 -8 -7 -7 -6 -7 -7 -7 -7 -8 -8
-9 -9 -8 -7 -7 -7 -7 -6 -6 -6 -6 -6 -6 -6 -6 -7 -7 -7 -7 -7 -7 -7 -7 -7 -7 -8 -7 -7 -7 -8 -8 -9 -9 -8 -7 -7 -6 -6 -6 -6 -6 -6 -6 -7
-9 -8 -8 -7 -7 -7 -7 -7 -7 -7 -6 -7 -7 -7 -7 -7 -7 -7 -7 -7 -7 -7 -7 -7 -7 -7 -7 -8 -8 -8 -8 -9 -8 -7 -7 -6 -6 -6 -6 -6 -6 -6 -6 -6
-9 -8 -8 -7 -7 -7 -8 -7 -7 -7 -7 -8 -7 -7 -7 -8 -8 -8 -8 -7 -7 -7 -7 -7 -7 -8 -8 -8 -8 -8 -8 -8 -8 -8 -7 -7 -6 -7 -7 -7 -7 -7 -7 -7
-8 -8 -8 -8 -7 -7 -7 -8 -8 -7 -7 -7 -7 -7 -7 -8 -8 -6 -6 -7 -7 -7 -7 -7 -7 -8 -8 -8 -8 -8 -8 -8 -8 -7 -7 -7 -7 -7 -7 -7 -7 -7 -7 -7
-9 -8 -8 -8 -7 -8 -7 -8 -8 -8 -7 -7 -7 -7 -7 -9 -8 -9 -8 -8 -7 -8 -8 -7 -8 -8 -8 -8 -8 -8 -8 -8 -8 -8 -7 -7 -7 -7 -7 -7 -7 -7 -7 -6
-8 -8 -8 -7 -7 -7 -7 -8 -8 -7 -7 -6 -7 -7 -8 -8 -8 -8 -9 -8 -7 -8 -8 -8 -8 -8 -8 -8 -8 -8 -8 -8 -8 -8 -8 -8 -7 -7 -7 -7 -7 -7 -7 -6
-8 -8 -8 -8 -8 -8 -8 -7 -7 -7 -7 -7 -7 -8 -8 -8 -8 -8 -8 -8 -8 -8 -8 -8 -8 -8 -7 -8 -8 -8 -8 -8 -8 -8 -8 -7 -7 -7 -7 -7 -7 -7 -7 -7
-9 -8 -9 -8 -9 -8 -9 -8 -8 -7 -7 -8 -8 -8 -8 -8 -8 -8 -8 -8 -8 -8 -8 -9 -8 -9 -8 -8 -8 -8 -8 -8 -8 -8 -7 -7 -7 -7 -7 -7 -7 -7 -7 -7
-9 -8 -9 -9 -9 -9 -9 -7 -8 -8 -8 -8 -8 -8 -8 -8 -8 -8 -8 -8 -8 -9 -9 -9 -9 -8 -8 -8 -8 -8 -8 -8 -7 -7 -7 -7 -7 -7 -7 -7 -7 -7 -7 -7
Height
5936 5938 5939 5943 5943 5945 5944 5945 5950 5946 5945 5943 5945 5943 5945 5946 5945 5944 5943 5942 5941 5939 5938 5937 5937 5936 5936 5936 5935 5934 5934 5934 5935 5936 5938 5938 5938 5936 5937 5938 5941 5939 5941 5944
5933 5936 5938 5942 5944 5943 5946 5951 5938 5946 5945 5943 5940 5943 5946 5951 5950 5947 5944 5942 5942 5940 5938 5937 5937 5937 5936 5936 5936 5935 5934 5934 5934 5935 5936 5936 5937 5937 5940 5939 5943 5942 5941 5943
5930 5935 5937 5939 5945 5950 5952 5953 5949 5942 5947 5946 5946 5947 5943 5930 5948 5948 5946 5943 5942 5941 5940 5939 5938 5938 5937 5937 5937 5936 5935 5935 5934 5935 5935 5935 5936 5937 5939 5940 5940 5939 5941 5944
5927 5930 5936 5936 5939 5946 5950 5951 5951 5952 5947 5947 5947 5949 5943 5940 5946 5947 5946 5944 5943 5941 5940 5939 5939 5938 5938 5938 5938 5937 5936 5935 5935 5936 5936 5937 5936 5936 5938 5938 5939 5941 5941 5943
5924 5926 5930 5932 5937 5941 5944 5948 5945 5946 5946 5946 5948 5949 5941 5946 5947 5948 5943 5942 5942 5941 5939 5938 5937 5937 5938 5938 5938 5938 5937 5937 5937 5937 5938 5939 5938 5938 5938 5939 5940 5941 5942 5942
5917 5923 5924 5929 5931 5933 5938 5941 5944 5943 5943 5943 5946 5948 5936 5938 5943 5933 5937 5939 5941 5941 5939 5939 5939 5938 5938 5938 5938 5938 5939 5939 5939 5939 5939 5940 5940 5939 5939 5939 5940 5942 5943 5927
5913 5916 5918 5922 5926 5928 5932 5938 5941 5944 5943 5942 5946 5941 5933 5931 5934 5933 5930 5934 5940 5940 5939 5940 5939 5939 5939 5939 5939 5938 5939 5939 5939 5938 5938 5938 5938 5938 5939 5940 5941 5941 5942 5942
5909 5912 5916 5920 5923 5927 5929 5935 5939 5941 5942 5945 5941 5938 5929 5929 5935 5932 5931 5932 5939 5939 5939 5940 5940 5940 5939 5939 5939 5938 5937 5937 5937 5937 5936 5936 5937 5937 5936 5937 5938 5938 5942 5939
5909 5913 5916 5915 5918 5922 5926 5930 5935 5938 5939 5941 5939 5939 5935 5926 5930 5931 5934 5935 5938 5937 5939 5941 5941 5940 5940 5940 5940 5939 5939 5937 5936 5934 5935 5934 5934 5934 5935 5935 5936 5937 5939 5934
5904 5910 5913 5913 5914 5917 5920 5929 5934 5933 5935 5936 5938 5932 5931 5929 5932 5935 5933 5934 5934 5936 5938 5938 5940 5941 5941 5942 5940 5940 5938 5937 5936 5934 5933 5932 5930 5930 5931 5932 5934 5935 5937 5939
5898 5905 5911 5912 5909 5913 5918 5921 5925 5930 5935 5936 5938 5936 5931 5936 5937 5937 5933 5936 5933 5933 5935 5936 5937 5937 5937 5941 5939 5938 5936 5935 5935 5933 5930 5926 5922 5922 5925 5930 5931 5933 5935 5936
5894 5899 5905 5909 5910 5910 5913 5919 5922 5927 5930 5932 5935 5935 5931 5928 5930 5933 5932 5935 5927 5932 5924 5932 5933 5935 5933 5937 5938 5936 5934 5934 5932 5931 5928 5924 5917 5914 5923 5928 5930 5932 5934 5935
5891 5893 5901 5905 5911 5909 5908 5914 5921 5924 5929 5930 5933 5935 5930 5929 5926 5928 5930 5929 5932 5935 5932 5932 5933 5934 5934 5933 5935 5934 5933 5932 5931 5930 5927 5925 5924 5925 5926 5928 5929 5931 5933 5934
5885 5891 5895 5902 5908 5910 5907 5909 5913 5918 5924 5927 5930 5931 5920 5923 5919 5922 5924 5927 5930 5932 5934 5934 5934 5933 5933 5931 5931 5930 5930 5929 5928 5926 5925 5925 5926 5926 5927 5928 5929 5930 5931 5931
5880 5885 5892 5896 5901 5904 5906 5907 5907 5909 5915 5920 5925 5919 5921 5917 5911 5918 5920 5925 5928 5931 5932 5932 5932 5932 5930 5930 5928 5928 5928 5927 5925 5923 5922 5922 5923 5924 5925 5926 5926 5927 5928 5927
5877 5881 5887 5891 5896 5899 5901 5904 5907 5907 5909 5913 5918 5918 5912 5913 5912 5915 5917 5921 5925 5928 5928 5930 5931 5930 5928 5927 5926 5925 5925 5923 5922 5922 5922 5921 5921 5922 5923 5923 5924 5925 5924 5924
5876 5879 5884 5888 5893 5897 5897 5899 5902 5906 5907 5910 5914 5913 5905 5906 5909 5910 5913 5917 5921 5924 5924 5925 5927 5927 5926 5925 5924 5923 5922 5921 5921 5921 5920 5919 5919 5920 5920 5921 5922 5921 5921 5921
5874 5876 5881 5886 5890 5890 5894 5898 5899 5902 5904 5907 5910 5905 5903 5904 5905 5902 5906 5912 5915 5917 5919 5921 5923 5923 5922 5920 5919 5920 5921 5920 5919 5919 5919 5919 5918 5918 5918 5918 5919 5919 5918 5917
5871 5876 5880 5884 5886 5888 5890 5893 5893 5895 5901 5898 5901 5898 5896 5900 5901 5901 5904 5908 5911 5912 5914 5917 5918 5919 5917 5917 5917 5918 5919 5919 5917 5916 5916 5915 5915 5915 5914 5914 5915 5915 5914 5913
5869 5872 5876 5879 5882 5881 5882 5882 5889 5889 5892 5887 5892 5893 5886 5878 5893 5896 5900 5903 5907 5909 5909 5912 5913 5914 5915 5915 5915 5915 5916 5916 5915 5914 5913 5912 5912 5911 5911 5910 5909 5909 5908 5907
5865 5867 5871 5874 5876 5879 5876 5873 5876 5883 5884 5882 5886 5888 5889 5886 5890 5879 5881 5897 5902 5906 5906 5907 5910 5912 5913 5913 5913 5914 5914 5913 5911 5909 5908 5907 5908 5907 5906 5905 5904 5904 5902 5901
5859 5864 5868 5872 5871 5869 5865 5861 5859 5877 5877 5879 5882 5883 5884 5879 5879 5858 5862 5878 5896 5900 5902 5902 5905 5907 5908 5909 5910 5910 5910 5909 5906 5905 5904 5904 5904 5903 5903 5901 5900 5898 5897 5895
5844 5863 5868 5872 5867 5866 5861 5860 5869 5869 5873 5874 5879 5880 5879 5876 5879 5875 5875 5884 5893 5897 5897 5897 5900 5901 5903 5905 5905 5905 5905 5903 5903 5902 5901 5900 5899 5898 5897 5895 5893 5891 5889 5887
5839 5854 5850 5858 5852 5856 5839 5846 5866 5868 5868 5874 5875 5876 5877 5877 5875 5879 5884 5889 5889 5890 5890 5891 5895 5895 5896 5899 5900 5899 5898 5898 5897 5896 5895 5894 5894 5892 5890 5889 5886 5884 5881 5878
5834 5836 5843 5851 5841 5843 5851 5856 5860 5863 5867 5870 5873 5875 5877 5878 5877 5877 5881 5881 5883 5884 5887 5883 5871 5888 5894 5891 5893 5893 5893 5892 5892 5892 5890 5890 5888 5886 5885 5883 5880 5877 5873 5870
5830 5835 5831 5848 5843 5844 5850 5851 5856 5861 5865 5868 5871 5874 5876 5877 5879 5879 5879 5880 5881 5882 5883 5882 5880 5884 5888 5886 5888 5889 5889 5888 5887 5885 5883 5881 5880 5878 5876 5874 5871 5868 5865 5863
Wind_Speed
14 15 12 5 17 17 13 12 4 14 11 10 2 5 7 7 9 11 14 13 12 9 6 5 6 5 5 5 6 5 5 2 4 5 5 4 5 10 9 14 10 6 2 4
21 15 13 10 15 6 11 2 15 6 11 10 13 15 14 7 11 10 14 12 12 13 9 7 6 6 7 7 7 5 5 5 4 3 2 3 6 9 8 6 8 5 4 5
22 17 16 17 14 12 12 9 18 3 12 7 4 10 17 8 6 10 14 12 8 11 8 6 5 4 4 8 7 6 5 5 5 4 3 2 4 8 8 9 6 2 3 5
24 21 15 22 18 15 11 13 9 16 18 5 12 11 24 26 18 10 11 12 8 10 9 6 4 6 5 5 6 6 5 4 4 3 4 4 3 6 5 4 4 5 5 6
26 23 23 25 19 15 16 12 11 15 12 13 10 19 29 22 21 21 3 9 9 9 10 7 4 4 6 6 4 5 5 6 7 6 4 4 6 6 7 6 6 7 6 6
30 19 28 21 25 27 22 22 16 18 13 16 12 16 30 31 20 13 8 7 8 10 10 9 5 4 6 7 6 5 7 7 8 8 8 8 7 7 8 6 7 7 4 6
30 31 30 32 29 29 25 17 16 15 15 15 9 20 14 27 23 14 16 16 12 9 8 8 12 10 11 12 12 8 7 7 8 9 8 6 7 7 6 8 9 8 6 7
20 25 27 24 28 26 22 18 18 13 9 10 19 28 28 17 19 20 7 11 11 9 8 12 12 8 11 14 13 12 7 6 6 6 7 8 7 6 6 6 8 10 5 10
16 15 17 22 26 28 22 22 19 19 18 16 23 22 27 6 5 11 10 18 11 8 5 8 11 9 8 15 13 16 15 9 5 5 8 9 10 11 10 6 7 9 6 12
20 16 14 22 23 30 29 16 12 17 17 17 16 11 11 7 4 12 8 13 13 3 4 8 9 11 10 12 11 13 10 11 9 6 7 8 13 16 13 13 9 10 10 9
24 17 14 20 24 24 28 29 22 14 14 12 12 13 12 18 5 7 19 12 14 10 6 8 11 20 21 16 15 12 11 13 13 13 14 16 22 25 22 16 11 9 10 10
20 21 15 18 17 17 22 16 23 15 17 17 16 16 21 18 15 18 16 16 16 16 22 6 16 21 24 20 19 13 14 14 13 13 16 22 18 7 11 13 8 8 9 10
19 24 18 16 17 17 21 21 16 17 15 16 16 17 5 8 16 17 14 23 15 11 13 17 17 20 20 25 21 11 13 12 9 9 13 16 16 11 7 5 0 5 10 11
24 18 20 14 11 16 17 20 23 20 19 16 16 16 22 17 21 23 21 18 11 7 7 12 12 15 17 16 16 10 11 8 7 10 13 13 10 5 3 7 9 11 14 15
18 18 18 20 14 11 19 16 17 25 23 22 17 17 16 14 22 20 20 15 15 11 10 8 8 12 13 14 13 9 9 9 8 12 15 16 8 5 8 12 14 16 18 18
17 17 19 18 16 14 15 13 17 20 22 23 18 14 23 17 24 22 15 15 18 14 11 9 9 11 14 13 11 10 8 9 13 16 17 14 7 6 8 11 15 18 20 23
11 14 15 15 15 15 15 16 14 13 14 16 15 20 25 28 29 28 20 17 18 17 11 11 12 12 16 14 14 10 9 14 13 16 15 13 9 7 8 9 11 13 15 18
10 14 13 11 13 22 14 8 13 16 18 17 18 26 30 28 26 29 24 18 18 15 10 11 14 16 18 18 14 11 10 10 14 14 10 11 9 10 11 12 14 15 16 17
15 14 14 14 18 15 15 17 17 17 14 22 24 24 29 32 32 31 24 24 19 14 10 10 14 15 18 15 12 6 12 16 13 14 10 11 11 12 14 16 17 19 20 20
16 16 19 20 20 22 21 8 21 17 25 29 32 32 39 15 17 25 27 26 16 14 11 7 9 14 14 8 8 9 13 15 12 13 13 11 12 13 14 16 19 20 21 22
21 24 22 21 21 19 28 30 18 25 22 30 26 28 26 18 27 35 37 22 17 17 13 10 11 13 14 10 9 12 13 15 15 11 12 12 15 16 18 20 23 24 24 24
24 22 22 17 26 26 29 39 3 16 13 21 22 27 20 20 30 29 26 26 19 17 16 18 17 20 18 17 17 17 15 17 15 12 13 15 17 18 20 24 25 23 22 22
29 19 15 15 25 27 29 14 11 15 8 12 19 19 17 12 15 21 11 4 15 20 23 24 25 26 25 21 18 17 14 14 15 16 17 19 20 21 23 24 25 24 25 25
40 33 27 32 31 30 36 13 10 13 11 11 9 5 3 12 16 17 19 18 19 21 24 29 31 33 17 19 18 17 15 16 16 17 19 19 20 23 24 26 28 28 29 30
47 30 26 37 34 29 26 16 15 14 14 10 5 8 11 14 16 18 17 19 17 23 27 33 36 35 24 14 19 18 17 18 17 18 19 20 21 23 24 24 25 27 29 31
43 39 25 24 37 37 14 22 18 16 14 9 8 8 9 12 14 18 16 19 23 23 19 20 15 13 8 14 17 17 18 18 20 21 22 23 22 25 27 27 28 30 32 33
Wind_Direction
210 214 223 184 263 318 20 40 222 288 345 329 146 24 38 30 23 30 31 31 30 27 22 27 37 42 16 359 358 360 9 347 292 290 297 280 238 229 225 164 207 183 290 300
214 213 216 202 260 319 328 240 234 306 346 334 17 335 315 347 2 34 27 22 21 24 10 17 14 16 26 0 353 360 4 358 4 358 321 293 254 242 236 262 216 198 251 300
212 203 219 214 219 223 238 235 276 88 295 330 289 269 281 308 0 358 10 13 17 15 12 352 1 359 15 21 4 356 15 7 13 18 343 320 251 246 236 244 235 237 253 290
215 198 220 233 217 230 237 268 276 267 279 279 286 260 291 307 298 340 346 9 9 4 11 4 356 351 4 31 32 5 20 22 16 6 333 319 284 270 257 256 236 232 246 280
215 210 211 224 223 236 209 230 241 254 277 278 271 272 255 283 285 289 270 4 4 3 358 8 10 340 335 353 8 9 6 26 31 17 332 308 291 275 265 251 229 217 245 286
213 224 231 222 222 206 216 206 250 272 270 268 276 269 275 269 299 317 97 40 10 7 348 352 10 357 349 343 332 352 357 356 3 11 6 352 330 297 286 268 231 235 262 214
227 223 225 224 226 223 219 230 250 254 271 278 320 270 300 303 330 310 346 351 342 356 3 351 344 12 16 12 10 360 350 347 347 344 338 342 340 344 304 279 270 262 248 256
238 235 239 234 229 233 236 221 232 244 246 289 271 288 294 287 295 312 12 286 312 338 14 2 349 340 7 9 8 10 347 345 326 315 304 297 293 309 325 313 270 263 267 252
215 254 260 244 229 226 217 228 224 236 245 271 282 289 300 317 71 345 294 220 279 324 342 2 346 329 5 356 345 3 355 325 304 307 312 301 284 273 274 281 286 273 246 261
200 241 220 252 243 224 221 202 253 248 242 250 277 314 317 331 148 261 264 225 281 269 304 330 357 349 327 345 343 348 344 337 321 324 330 306 279 258 257 243 252 270 265 247
207 201 213 220 244 226 223 215 213 217 242 249 258 264 296 217 215 229 276 287 270 292 267 298 336 333 327 353 350 346 336 341 339 331 334 320 300 254 249 238 231 257 272 260
223 211 220 224 237 241 204 234 229 228 219 227 255 273 290 290 199 202 255 261 224 285 260 341 337 328 318 335 334 324 322 322 336 335 357 5 23 127 176 204 227 256 264 252
219 214 208 211 235 246 228 209 229 230 233 237 245 250 186 230 253 274 248 255 237 251 278 323 325 312 306 312 312 294 305 310 332 351 13 15 14 95 113 119 276 262 259 259
197 208 213 199 224 249 254 222 220 213 224 230 245 266 292 281 261 285 276 250 234 231 281 301 274 311 296 298 276 280 287 298 322 351 0 2 0 345 238 212 250 254 254 256
210 205 205 211 207 218 241 254 245 225 208 221 226 269 226 263 249 269 274 228 235 249 275 262 287 300 292 259 267 273 282 293 325 348 350 346 338 282 259 255 256 255 257 263
197 196 200 222 211 243 222 214 239 246 221 221 227 272 272 261 258 273 240 238 236 252 275 239 289 292 287 272 264 269 294 332 344 344 336 329 325 302 280 271 266 265 269 271
235 208 215 217 218 230 237 224 215 235 231 222 220 248 262 260 264 267 267 251 231 249 275 248 280 301 305 292 276 271 310 329 331 329 327 323 321 319 308 300 293 281 272 270
197 218 190 209 233 228 228 220 243 220 220 220 212 245 255 262 263 267 266 247 233 248 267 248 278 303 315 311 318 312 304 316 316 319 310 305 314 312 311 305 298 293 290 286
209 212 207 219 221 232 212 233 216 196 207 216 207 241 257 254 255 256 257 239 234 240 235 252 268 301 315 320 316 278 309 307 304 304 301 297 302 306 306 302 297 293 294 296
212 216 208 211 215 249 206 195 239 231 221 215 215 223 234 195 234 256 234 229 223 210 235 263 293 299 317 299 299 301 280 281 289 281 284 294 295 298 299 302 302 301 300 298
216 202 225 215 220 237 243 218 199 197 216 243 246 236 248 259 224 215 191 205 211 222 240 256 288 311 308 286 278 283 291 294 289 277 284 291 294 298 303 303 299 299 301 301
200 216 209 205 241 226 243 236 247 215 224 242 244 239 236 230 228 257 186 162 211 236 254 266 283 296 297 299 279 289 294 299 298 299 300 292 292 292 290 291 291 294 297 299
186 198 200 222 252 241 262 212 227 233 216 194 222 237 219 251 264 279 288 150 233 250 261 269 275 283 294 289 284 286 291 295 293 295 295 292 288 288 295 295 297 301 302 303
150 189 194 229 228 233 253 136 247 224 190 211 218 179 242 272 282 278 275 263 271 269 273 276 274 274 264 280 285 295 302 297 297 297 291 290 294 298 301 301 303 304 304 308
175 201 193 218 232 190 234 251 252 229 213 217 239 258 259 261 269 275 264 269 270 279 276 283 273 250 265 266 288 297 302 301 296 293 293 296 300 299 298 298 301 304 307 308
204 195 180 233 254 236 250 232 233 207 210 223 248 277 273 270 262 255 270 260 259 276 276 276 278 284 281 278 288 293 291 293 296 300 307 311 310 305 306 308 309 308 306 305